Weather History for Madera, CA

Change the Weather History Date:

Wednesday, December 26, 2012

  Actual Average Record
Temperature  
Mean Temperature 49 °F 44 °F  
Max Temperature 55 °F 53 °F 67 °F (2013)
Min Temperature 42 °F 36 °F 25 °F (2011)
Degree Days  
Heating Degree Days 16    
Month to date heating degree days 414  
Since 1 July heating degree days 782  
Cooling Degree Days 0    
Month to date cooling degree days 0  
Year to date cooling degree days 1737  
Moisture  
Dew Point 43 °F    
Average Humidity 81    
Maximum Humidity 100    
Minimum Humidity 61    
Precipitation  
Precipitation 0.29 in 0.06 in 0.49 in (2005)
Month to date precipitation 2.52 1.34  
Year to date precipitation 10.92 11.66  
Since 1 July precipitation 4.70 3.66  
Snow  
Snow 0.00 in - - ()
Month to date snowfall 0.0  
Since 1 July snowfall 0.0  
Snow Depth 0.00 in    
Sea Level Pressure  
Sea Level Pressure 29.99 in    
Wind  
Wind Speed 5 mph (South)    
Max Wind Speed 15 mph    
Max Gust Speed 18 mph    
Visibility 9 miles    
Events Rain    
T = Trace of Precipitation, MM = Missing Value Source: NWS Daily Summary

Daily Weather History Graph

Daily Weather History Graph

Search for Another Location

Airport:

Trip Planner

Search our weather history database for the weather conditions in past years. The results will help you decide how hot, cold, wet, or windy it might be!

Date:

Astronomy

Dec. 26, 2012 Rise Set
Actual Time 7:12 AM PST 4:50 PM PST
Civil Twilight 6:43 AM PST 5:19 PM PST
Nautical Twilight 6:10 AM PST 5:52 PM PST
Astronomical Twilight 5:39 AM PST 6:23 PM PST
Moon 3:47 PM PST (12/26) 5:40 AM PST (12/26)
Length of Visible Light 10h 36m
Length of Day
9h 38m
Waxing Gibbous, 98% of the Moon is Illuminated
Dec 26
Waxing Gibbous
Dec 28
Full
Jan 4
Last Quarter
Jan 11
New
Jan 18
First Quarter

Hourly Weather History & Observations

Time (PST) Temp. Windchill Dew Point Humidity Pressure Visibility Wind Dir Wind Speed Gust Speed Precip Events Conditions
12:53 AM 45.0 °F - 42.1 °F 90% 29.90 in 8.0 mi North - - 0.06 in Rain Light Rain
1:53 AM 46.0 °F - 43.0 °F 89% 29.92 in 10.0 mi North - - 0.00 in   Overcast
2:05 AM 44.6 °F - 42.8 °F 93% 29.92 in 4.0 mi North - - 0.04 in Rain Rain
2:29 AM 44.6 °F - 42.8 °F 93% 29.91 in 4.0 mi North - - 0.11 in Rain Rain
2:53 AM 45.0 °F - 42.1 °F 90% 29.92 in 4.0 mi North - - 0.18 in Rain Rain
3:53 AM 45.0 °F - 42.1 °F 90% 29.92 in 10.0 mi North - - 0.01 in   Overcast
4:53 AM 43.0 °F - 41.0 °F 93% 29.92 in 10.0 mi North - - N/A   Mostly Cloudy
5:00 AM 42.8 °F - 41.0 °F 93% 29.91 in 10.0 mi North - - N/A   Partly Cloudy
5:40 AM 42.8 °F - 42.8 °F 100% 29.93 in 10.0 mi North - - N/A   Overcast
5:53 AM 43.0 °F - 42.1 °F 97% 29.93 in 10.0 mi North - - N/A   Overcast
6:53 AM 44.1 °F - 42.1 °F 93% 29.96 in 10.0 mi North - - N/A   Overcast
7:53 AM 42.1 °F 40.2 °F 42.1 °F 100% 29.98 in 3.0 mi East 3.5 mph - N/A   Partly Cloudy
8:53 AM 46.9 °F - 44.1 °F 90% 30.01 in 9.0 mi East 4.6 mph - N/A   Overcast
9:53 AM 48.0 °F - 45.0 °F 89% 30.03 in 10.0 mi East 3.5 mph - N/A   Overcast
10:53 AM 50.0 °F - 45.0 °F 83% 30.03 in 10.0 mi Calm Calm - N/A   Overcast
11:53 AM 52.0 °F - 43.0 °F 71% 30.01 in 10.0 mi Calm Calm - N/A   Overcast
12:53 PM 52.0 °F - 42.1 °F 69% 29.99 in 10.0 mi Calm Calm - N/A   Mostly Cloudy
1:53 PM 55.0 °F - 43.0 °F 64% 29.98 in 10.0 mi West 5.8 mph - N/A   Scattered Clouds
2:53 PM 54.0 °F - 42.1 °F 64% 29.98 in 10.0 mi WSW 8.1 mph - N/A   Scattered Clouds
3:53 PM 54.0 °F - 41.0 °F 62% 29.99 in 10.0 mi West 13.8 mph - N/A   Scattered Clouds
4:53 PM 50.0 °F - 41.0 °F 71% 30.00 in 10.0 mi West 11.5 mph - N/A   Mostly Cloudy
5:53 PM 48.9 °F - 42.1 °F 77% 30.02 in 10.0 mi East 3.5 mph - N/A   Overcast
6:53 PM 46.9 °F - 42.1 °F 83% 30.04 in 10.0 mi NE 9.2 mph - N/A   Overcast
7:09 PM 48.2 °F - 42.8 °F 82% 30.04 in 10.0 mi North - - N/A   Overcast
7:36 PM 46.4 °F - 42.8 °F 87% 30.04 in 10.0 mi North - - N/A   Mostly Cloudy
7:53 PM 46.0 °F - 42.1 °F 86% 30.04 in 10.0 mi North - - N/A   Mostly Cloudy
8:31 PM 46.4 °F - 42.8 °F 87% 30.05 in 10.0 mi North - - N/A   Overcast
8:53 PM 46.0 °F - 43.0 °F 89% 30.05 in 10.0 mi North - - N/A   Overcast
9:53 PM 46.0 °F - 43.0 °F 89% 30.07 in 5.0 mi North - - 0.03 in Rain Rain
10:53 PM 44.1 °F 42.5 °F 43.0 °F 96% 30.08 in 10.0 mi WSW 3.5 mph - 0.02 in   Overcast
11:53 PM 44.1 °F - 43.0 °F 96% 30.08 in 10.0 mi Calm Calm - 0.00 in   Mostly Cloudy